Content
SEND FEEDBACK

Daily
Averages
Monthly
Summary
United States of America

CHEROKEE, TEXAS


Home > North America > United States > Texas
Elevation: 1630 feet     Latitude: 31 05N     Longitude: 098 45W

WEATHER
 
SELECT A DAY
Number of Records: 237,500;   Date Range: 6/16/04 - 7/23/14
 
SHARE

PRINT THIS DATA

[ ← Previous Day ]
WEATHER ALMANAC - JANUARY 31, 2013
[ Next Day → ]
[ °C ]   °F
Weather ElementAverageHighLow
Temperature47.6 °F69.8 °F (2:55 pm)26.6 °F (6:35 am)
Dewpoint21.4 °F28.4 °F (9:15 pm)17.6 °F (11:55 am)
Humidity43.4 %80 % (6:35 am)14 % (2:55 pm)
Barometer30.25 in30.31 in (10:15 am)30.18 in (3:55 pm)
Wind Speed4 mph13.8 mph (3:35 pm)
Wind Gust19.6 mph (1:15 pm)
Weather ElementAverage
Visibility10 mi
Wind DirectionESE (111.8 °)

Weather ElementTotal
Precipitation---
Heating Degree Days16.8 (Base 65)
Averaged from 68 records on January 31, 2013
WEATHER CONDITIONS BREAKOUT
WIND DIRECTION BREAKOUT
WEATHER BY HOUR - JANUARY 31, 2013
[ °C ]   °F
Local TimeTemperatureDewpointHumidityBarometerVisibilityWind DirectionWind SpeedGust SpeedPrecipitationEventsConditions
12:55 AM32.0 °F21.2 °F64 %30.25 in10.0 miCalmClear
1:15 AM32.0 °F21.2 °F64 %30.25 in10.0 miCalmClear
1:35 AM30.2 °F21.2 °F69 %30.24 in10.0 miCalmClear
1:55 AM30.2 °F21.2 °F69 %30.23 in10.0 miWest (270°)4.6 mphClear
2:15 AM30.2 °F21.2 °F69 %30.24 in10.0 miCalmClear
2:35 AM30.2 °F21.2 °F69 %30.22 in10.0 miCalmClear
2:55 AM30.2 °F23.0 °F75 %30.22 in10.0 miSSE (160°)3.5 mphClear
3:15 AM30.2 °F23.0 °F75 %30.23 in10.0 miSSE (160°)3.5 mphClear
3:35 AM30.2 °F23.0 °F75 %30.23 in10.0 miCalmClear
3:55 AM30.2 °F21.2 °F69 %30.22 in10.0 miCalmClear
4:15 AM28.4 °F21.2 °F74 %30.22 in10.0 miWSW (250°)4.6 mphClear
4:35 AM28.4 °F21.2 °F74 %30.23 in10.0 miCalmClear
4:55 AM28.4 °F21.2 °F74 %30.23 in10.0 miCalmClear
5:15 AM28.4 °F21.2 °F74 %30.23 in10.0 miWSW (250°)6.9 mphClear
5:35 AM28.4 °F21.2 °F74 %30.23 in10.0 miCalmClear
5:55 AM28.4 °F21.2 °F74 %30.23 in10.0 miCalmClear
6:15 AM28.4 °F21.2 °F74 %30.24 in10.0 miCalmClear
6:35 AM26.6 °F21.2 °F80 %30.26 in10.0 miSouth (170°)8.1 mphClear
6:55 AM30.2 °F21.2 °F69 %30.27 in10.0 miCalmClear
7:15 AM28.4 °F21.2 °F74 %30.27 in10.0 miCalmClear
7:35 AM28.4 °F21.2 °F74 %30.27 in10.0 miCalmClear
7:55 AM30.2 °F23.0 °F75 %30.28 in10.0 miCalmClear
8:15 AM32.0 °F23.0 °F69 %30.28 in10.0 miCalmClear
8:35 AM35.6 °F23.0 °F60 %30.29 in10.0 miCalmClear
8:55 AM37.4 °F21.2 °F52 %30.29 in10.0 miCalmClear
9:15 AM41.0 °F21.2 °F45 %30.29 in10.0 miCalmClear
9:35 AM42.8 °F21.2 °F42 %30.30 in10.0 miSSW (210°)3.5 mphClear
9:55 AM44.6 °F23.0 °F43 %30.30 in10.0 miCalmClear
10:15 AM50.0 °F23.0 °F35 %30.31 in10.0 miSW (230°)3.5 mphClear
10:35 AM53.6 °F21.2 °F28 %30.30 in10.0 miSW (230°)5.8 mphClear
10:55 AM55.4 °F21.2 °F26 %30.30 in10.0 miSSW (210°)4.6 mphClear
11:15 AM59.0 °F21.2 °F23 %30.30 in10.0 miSouth (170°)8.1 mphClear
11:35 AM60.8 °F21.2 °F22 %30.29 in10.0 miSW (230°)3.5 mphClear
11:55 AM64.4 °F17.6 °F16 %30.28 in10.0 miSouth (190°)12.7 mph17.3 mphClear
12:15 PM64.4 °F17.6 °F16 %30.27 in10.0 miSW (220°)12.7 mph16.1 mphClear
12:35 PM64.4 °F17.6 °F16 %30.26 in10.0 miWest (260°)11.5 mph18.4 mphClear
12:55 PM66.2 °F17.6 °F15 %30.24 in10.0 miWSW (250°)12.7 mphClear
1:15 PM66.2 °F17.6 °F15 %30.23 in10.0 miWSW (250°)10.4 mph19.6 mphClear
1:35 PM68.0 °F17.6 °F15 %30.22 in10.0 miWest (270°)10.4 mphClear
1:55 PM68.0 °F19.4 °F16 %30.21 in10.0 miWest (270°)10.4 mph17.3 mphClear
2:15 PM68.0 °F19.4 °F16 %30.20 in10.0 miWSW (250°)10.4 mphClear
2:35 PM68.0 °F17.6 °F15 %30.19 in10.0 miWest (260°)11.5 mph16.1 mphClear
2:55 PM69.8 °F17.6 °F14 %30.19 in10.0 miWest (260°)8.1 mphClear
3:15 PM69.8 °F19.4 °F15 %30.20 in10.0 miSW (230°)9.2 mphClear
3:35 PM69.8 °F17.6 °F14 %30.19 in10.0 miWest (270°)13.8 mph17.3 mphClear
3:55 PM69.8 °F19.4 °F15 %30.18 in10.0 miWSW (250°)9.2 mphClear
4:15 PM69.8 °F19.4 °F15 %30.18 in10.0 miWSW (240°)10.4 mphClear
4:35 PM69.8 °F19.4 °F15 %30.18 in10.0 miWSW (240°)9.2 mphClear
4:55 PM68.0 °F19.4 °F16 %30.19 in10.0 miWSW (240°)12.7 mphClear
5:15 PM66.2 °F19.4 °F17 %30.19 in10.0 miSSW (210°)9.2 mphClear
5:35 PM66.2 °F19.4 °F17 %30.19 in10.0 miSW (220°)9.2 mphClear
5:55 PM62.6 °F19.4 °F19 %30.20 in10.0 miSW (230°)5.8 mphClear
6:15 PM60.8 °F19.4 °F20 %30.20 in10.0 miCalmClear
6:35 PM57.2 °F21.2 °F25 %30.21 in10.0 miCalmClear
6:55 PM55.4 °F21.2 °F26 %30.22 in10.0 miSW (220°)3.5 mphClear
7:15 PM57.2 °F21.2 °F25 %30.23 in10.0 miSW (230°)5.8 mphClear
7:35 PM55.4 °F21.2 °F26 %30.24 in10.0 miCalmClear
8:15 PM53.6 °F23.0 °F30 %30.25 in10.0 miCalmClear
8:35 PM53.6 °F21.2 °F28 %30.26 in10.0 miCalmClear
8:55 PM51.8 °F24.8 °F35 %30.27 in10.0 miCalmClear
9:15 PM42.8 °F28.4 °F57 %30.27 in10.0 miCalmClear
9:35 PM44.6 °F26.6 °F49 %30.28 in10.0 miCalmClear
10:15 PM44.6 °F26.6 °F49 %30.28 in10.0 miCalmClear
10:35 PM42.8 °F26.6 °F53 %30.29 in10.0 miCalmClear
10:55 PM44.6 °F28.4 °F53 %30.29 in10.0 miCalmClear
11:15 PM44.6 °F26.6 °F49 %30.29 in10.0 miCalmClear
11:35 PM44.6 °F26.6 °F49 %30.29 in10.0 miCalmClear
11:55 PM44.6 °F24.8 °F46 %30.29 in10.0 miCalmClear
Hourly data recorded from KAQO, located miles away from Cherokee, Texas







STORIES FROM OUR PARTNERS